Change the Weather History Date:

Sunday, May 19, 2013

  Actual Average Record
Temperature  
Mean Temperature 52 °F 57 °F  
Max Temperature 64 °F 75 °F 90 °F (1954)
Min Temperature 40 °F 40 °F 25 °F (1931)
Degree Days  
Heating Degree Days 13 8  
Month to date heating degree days 192 196  
Since 1 July heating degree days 6622 6493  
Cooling Degree Days 0 0  
Month to date cooling degree days 0 0  
Year to date cooling degree days 0 0  
Moisture  
Dew Point 36 °F    
Average Humidity 59    
Maximum Humidity 93    
Minimum Humidity 25    
Precipitation  
Precipitation T in 0.05 in 0.60 in (1957)
Month to date precipitation 0.86 0.93  
Year to date precipitation 3.82 4.84  
Sea Level Pressure  
Sea Level Pressure 29.90 in    
Wind  
Wind Speed 4 mph (WNW)    
Max Wind Speed 24 mph    
Max Gust Speed 30 mph    
Visibility 10 miles    
Events      
T = Trace of Precipitation, MM = Missing Value Source: NWS Daily Summary

Daily Weather History Graph

Daily Weather History Graph

Search for Another Location

Airport or City:

Trip Planner

Search our weather history database for the weather conditions in past years. The results will help you decide how hot, cold, wet, or windy it might be!

Date:

Astronomy

May. 19, 2013 Rise Set
Actual Time 5:53 AM MDT 8:22 PM MDT
Civil Twilight 5:22 AM MDT 8:52 PM MDT
Nautical Twilight 4:44 AM MDT 9:31 PM MDT
Astronomical Twilight 4:01 AM MDT 10:13 PM MDT
Moon 2:30 PM MDT (5/19) 2:16 AM MDT (5/19)
Length of Visible Light 15h 30m
Length of Day
14h 28m
Waxing Gibbous, 66% of the Moon is Illuminated
May 19
Waxing Gibbous
May 24
Full
May 31
Last Quarter
Jun 8
New
Jun 16
First Quarter

Hourly Weather History & Observations

Time (MDT) Temp. Windchill Dew Point Humidity Pressure Visibility Wind Dir Wind Speed Gust Speed Precip Events Conditions
12:53 AM 46.0 °F - 41.0 °F 83% 29.91 in 10.0 mi Calm Calm - N/A   Partly Cloudy
1:53 AM 43.0 °F - 39.9 °F 89% 29.91 in 10.0 mi Calm Calm - N/A   Mostly Cloudy
2:53 AM 43.0 °F - 39.9 °F 89% 29.91 in 10.0 mi Calm Calm - N/A   Overcast
3:53 AM 41.0 °F 39.0 °F 39.0 °F 93% 29.91 in 10.0 mi NE 3.5 mph - N/A   Scattered Clouds
4:53 AM 41.0 °F - 37.9 °F 89% 29.91 in 10.0 mi Calm Calm - N/A   Mostly Cloudy
6:53 AM 44.1 °F - 39.0 °F 82% 29.91 in 10.0 mi Calm Calm - N/A   Overcast
7:53 AM 45.0 °F - 39.9 °F 82% 29.93 in 10.0 mi Calm Calm - N/A   Overcast
8:53 AM 46.9 °F - 39.0 °F 74% 29.93 in 10.0 mi SSE 4.6 mph - 0.00 in   Overcast
9:53 AM 51.1 °F - 37.9 °F 61% 29.93 in 10.0 mi Variable 3.5 mph - N/A   Overcast
10:53 AM 52.0 °F - 37.0 °F 57% 29.91 in 10.0 mi South 4.6 mph - N/A   Overcast
11:53 AM 55.0 °F - 32.0 °F 42% 29.88 in 10.0 mi Variable 3.5 mph - N/A   Mostly Cloudy
2:53 PM 57.9 °F - 30.9 °F 36% 29.86 in 10.0 mi NW 5.8 mph - N/A   Partly Cloudy
3:53 PM 59.0 °F - 27.0 °F 29% 29.84 in 10.0 mi Calm Calm - N/A   Mostly Cloudy
5:53 PM 57.9 °F - 30.9 °F 36% 29.85 in 10.0 mi West 18.4 mph - 0.00 in   Mostly Cloudy
6:53 PM 59.0 °F - 28.9 °F 32% 29.83 in 10.0 mi WNW 10.4 mph - 0.00 in   Partly Cloudy
7:53 PM 54.0 °F - 35.1 °F 49% 29.87 in 10.0 mi Calm Calm - N/A   Overcast
8:53 PM 53.1 °F - 35.1 °F 50% 29.90 in 10.0 mi NW 8.1 mph - N/A   Overcast
10:53 PM 50.0 °F - 37.0 °F 61% 29.93 in 10.0 mi WNW 4.6 mph - N/A   Overcast
11:53 PM 48.9 °F - 37.0 °F 64% 29.91 in 10.0 mi Calm Calm - N/A   Overcast